Date String (YYYY-MM-DD hh:mm:ss) UTC,Instrument flags,absolute air pressure of the measurement (hPa),sample flow rate (lpm),inlet stack bypass flow (lpm),air temperature of the measurement (°C),ambient temperature measured by the external sensor (°C),aerosol sample conditioner tube jacket temperature (°C),OPC LED temperature (°C),internal box temperature (°C),relative humidity of the measurement (%),span deviation,mass concentration of particles derived from Lorenz-Mie calculation of OPC scattering (μg/m³),mass concentration of particles derived from Lorenz-Mie calculation of OPC scattering (μg/m³),mass concentration of particles derived from Lorenz-Mie calculation of OPC scattering (μg/m³)
DateTimeUTC,F1_M11,P_M11,Q1_M11,Q2_M11,T1_M11,T2_M11,T3_M11,T4_M11,T5_M11,U1_M11,ZSPAN_M11,X0_M11,X2_M11,X1_M11
2023-06-24 11:00:00,SystemResetWarning,0829.5,5.00,000.00,030.3,028.6,000.0,038.8,031.7,9.1,0000.0,0013.07,0005.38,0004.14
2023-06-24 11:01:00,SystemResetWarning,0829.5,5.00,000.00,030.3,028.6,000.0,038.8,031.7,9.0,0000.0,0013.28,0005.37,0004.13
2023-06-24 11:02:00,SystemResetWarning,0829.4,5.00,000.00,030.3,028.6,000.0,038.8,031.7,8.8,0000.0,0013.67,0005.36,0004.13
2023-06-24 11:03:00,SystemResetWarning,0829.5,5.00,000.00,030.3,028.6,000.0,038.8,031.7,8.6,0000.0,0013.93,0005.35,0004.13
2023-06-24 11:04:00,SystemResetWarning,0829.5,5.00,000.00,030.3,028.6,000.0,038.8,031.7,8.7,0000.0,0014.68,0005.34,0004.12
2023-06-24 11:05:00,SystemResetWarning,0829.5,5.00,000.00,030.3,028.6,000.0,038.8,031.6,8.8,0000.0,0014.76,0005.35,0004.11
2023-06-24 11:06:00,SystemResetWarning,0829.5,5.00,000.00,030.3,028.6,000.0,038.8,031.7,8.8,0000.0,0014.28,0005.34,0004.11
2023-06-24 11:07:00,SystemResetWarning,0829.5,5.00,000.00,030.3,028.6,000.0,038.8,031.7,8.7,0000.0,0014.30,0005.30,0004.10
2023-06-24 11:08:00,SystemResetWarning,0829.5,5.00,000.00,030.3,028.6,000.0,038.8,031.7,8.8,0000.0,0014.03,0005.29,0004.09
2023-06-24 11:09:00,SystemResetWarning,0829.4,5.00,000.00,030.3,028.6,000.0,038.8,031.7,8.7,0000.0,0013.12,0005.28,0004.08
2023-06-24 11:10:00,SystemResetWarning,0829.5,5.00,000.00,030.3,028.6,000.0,038.9,031.7,8.7,0000.0,0012.71,0005.26,0004.08
2023-06-24 11:11:00,SystemResetWarning,0829.5,5.00,000.00,030.3,028.6,000.0,038.9,031.7,8.7,0000.0,0012.88,0005.24,0004.09
2023-06-24 11:12:00,SystemResetWarning,0829.5,5.00,000.00,030.3,028.6,000.0,038.9,031.7,8.5,0000.0,0012.42,0005.23,0004.10
2023-06-24 11:13:00,SystemResetWarning,0829.6,5.01,000.00,030.3,028.6,000.0,038.9,031.6,8.9,0000.0,0012.08,0005.22,0004.09
2023-06-24 11:14:00,SystemResetWarning,0829.6,5.01,000.00,030.3,028.6,000.0,038.9,031.6,9.7,0000.0,0012.20,0005.23,0004.08
2023-06-24 11:15:00,SystemResetWarning,0829.6,5.00,000.00,030.3,028.6,000.0,038.9,031.7,9.9,0000.0,0012.20,0005.24,0004.09
2023-06-24 11:16:00,SystemResetWarning,0829.5,5.00,000.00,030.3,028.5,000.0,038.9,031.7,9.6,0000.0,0012.18,0005.26,0004.11
2023-06-24 11:17:00,SystemResetWarning,0829.5,5.00,000.00,030.3,028.6,000.0,038.9,031.7,9.5,0000.0,0012.18,0005.25,0004.09
2023-06-24 11:18:00,SystemResetWarning,0829.4,5.00,000.00,030.3,028.6,000.0,038.9,031.7,8.9,0000.0,0012.50,0005.33,0004.09
2023-06-24 11:19:00,SystemResetWarning,0829.5,4.99,000.00,030.2,028.6,000.0,038.9,031.7,9.5,0000.0,0013.11,0005.38,0004.10
2023-06-24 11:20:00,SystemResetWarning,0829.5,4.99,000.00,030.2,028.6,000.0,038.9,031.6,9.0,0000.0,0013.34,0005.36,0004.11
2023-06-24 11:21:00,SystemResetWarning,0829.6,5.00,000.00,030.2,028.5,000.0,038.9,031.6,9.1,0000.0,0013.44,0005.33,0004.12
2023-06-24 11:22:00,SystemResetWarning,0829.7,5.01,000.00,030.2,028.5,000.0,038.9,031.5,9.2,0000.0,0013.51,0005.35,0004.12
2023-06-24 11:23:00,SystemResetWarning,0829.6,4.99,000.00,030.2,028.5,000.0,038.8,031.5,9.3,0000.0,0013.57,0005.36,0004.11
2023-06-24 11:24:00,SystemResetWarning,0829.5,5.00,000.00,030.2,028.5,000.0,038.8,031.5,9.4,0000.0,0013.44,0005.39,0004.12
2023-06-24 11:25:00,SystemResetWarning,0829.4,5.00,000.00,030.2,028.5,000.0,038.8,031.5,9.4,0000.0,0013.88,0005.40,0004.13
2023-06-24 11:26:00,SystemResetWarning,0829.4,5.00,000.00,030.2,028.5,000.0,038.8,031.5,9.3,0000.0,0013.31,0005.36,0004.14
2023-06-24 11:27:00,SystemResetWarning,0829.4,5.00,000.00,030.2,028.5,000.0,038.8,031.6,9.4,0000.0,0013.23,0005.38,0004.13
2023-06-24 11:28:00,SystemResetWarning,0829.4,5.00,000.00,030.2,028.5,000.0,038.8,031.5,9.2,0000.0,0013.40,0005.44,0004.14
2023-06-24 11:29:00,SystemResetWarning,0829.4,5.00,000.00,030.2,028.5,000.0,038.8,031.6,8.9,0000.6,0013.34,0005.43,0004.15
2023-06-24 11:30:00,SystemResetWarning,0829.4,5.00,000.00,030.2,028.5,000.0,038.8,031.6,8.8,0000.0,0012.99,0005.42,0004.16
2023-06-24 11:31:00,SystemResetWarning,0829.4,5.01,000.00,030.2,028.5,000.0,038.8,031.6,9.1,0000.0,0012.68,0005.45,0004.15
2023-06-24 11:32:00,SystemResetWarning,0829.5,5.00,000.00,030.2,028.5,000.0,038.8,031.6,9.1,0000.0,0013.25,0005.51,0004.15
2023-06-24 11:33:00,SystemResetWarning,0829.6,5.00,000.00,030.2,028.5,000.0,038.8,031.6,9.1,0000.0,0013.98,0005.58,0004.16
2023-06-24 11:34:00,SystemResetWarning,0829.6,5.00,000.00,030.2,028.5,000.0,038.8,031.6,9.4,0000.0,0014.02,0005.59,0004.18
2023-06-24 11:35:00,SystemResetWarning,0829.5,4.99,000.00,030.2,028.5,000.0,038.8,031.6,8.9,0000.0,0013.89,0005.57,0004.19
2023-06-24 11:36:00,SystemResetWarning,0829.4,4.99,000.00,030.2,028.5,000.0,038.8,031.6,8.3,0000.0,0013.57,0005.59,0004.21
2023-06-24 11:37:00,SystemResetWarning,0829.4,4.99,000.00,030.2,028.5,000.0,038.8,031.6,8.6,0003.1,0013.85,0005.67,0004.22
2023-06-24 11:38:00,SystemResetWarning,0829.6,5.00,000.00,030.2,028.6,000.0,038.8,031.6,9.0,0002.6,0014.04,0005.69,0004.21
2023-06-24 11:39:00,SystemResetWarning,0829.7,5.01,000.00,030.2,028.6,000.0,038.8,031.6,8.8,0000.0,0016.47,0005.68,0004.21
2023-06-24 11:40:00,SystemResetWarning,0829.6,5.01,000.00,030.2,028.5,000.0,038.8,031.5,8.7,0000.0,0016.86,0005.65,0004.22
2023-06-24 11:41:00,SystemResetWarning,0829.6,5.00,000.00,030.2,028.5,000.0,038.8,031.5,8.9,0001.8,0016.66,0005.66,0004.22
2023-06-24 11:42:00,SystemResetWarning,0829.6,5.00,000.00,030.2,028.5,000.0,038.8,031.6,8.7,0001.0,0016.73,0005.70,0004.23
2023-06-24 11:43:00,SystemResetWarning,0829.6,5.01,000.00,030.2,028.5,000.0,038.8,031.6,8.6,0003.7,0016.07,0005.66,0004.24
2023-06-24 11:44:00,SystemResetWarning,0829.6,5.00,000.00,030.2,028.5,000.0,038.8,031.6,8.7,0000.2,0015.09,0005.64,0004.24
2023-06-24 11:45:00,SystemResetWarning,0829.6,5.00,000.00,030.2,028.5,000.0,038.8,031.6,9.1,0000.0,0015.73,0005.66,0004.21
2023-06-24 11:46:00,SystemResetWarning,0829.7,5.00,000.00,030.1,028.5,000.0,038.8,031.6,9.3,0000.0,0015.57,0005.63,0004.19
2023-06-24 11:47:00,SystemResetWarning,0829.7,4.99,000.00,030.1,028.5,000.0,038.8,031.5,9.0,0000.0,0015.73,0005.65,0004.18
2023-06-24 11:48:00,SystemResetWarning,0829.7,4.99,000.00,030.1,028.5,000.0,038.8,031.5,8.8,0000.0,0015.64,0005.62,0004.17
2023-06-24 11:49:00,SystemResetWarning,0829.7,5.00,000.00,030.1,028.5,000.0,038.8,031.5,8.9,0000.0,0015.78,0005.56,0004.18
2023-06-24 11:50:00,SystemResetWarning,0829.7,5.00,000.00,030.1,028.5,000.0,038.8,031.5,9.0,0000.0,0014.39,0005.55,0004.18
2023-06-24 11:51:00,SystemResetWarning,0829.6,5.00,000.00,030.1,028.5,000.0,038.8,031.5,9.3,0000.0,0013.56,0005.49,0004.15
2023-06-24 11:52:00,SystemResetWarning,0829.6,4.99,000.00,030.1,028.5,000.0,038.8,031.5,9.3,0000.0,0013.91,0005.54,0004.15
2023-06-24 11:53:00,SystemResetWarning,0829.5,4.99,000.00,030.1,028.5,000.0,038.8,031.5,8.8,0000.0,0014.43,0005.57,0004.15
2023-06-24 11:54:00,SystemResetWarning,0829.6,5.01,000.00,030.1,028.5,000.0,038.8,031.5,8.8,0000.6,0015.46,0005.57,0004.13
2023-06-24 11:55:00,SystemResetWarning,0829.7,5.00,000.00,030.1,028.5,000.0,038.8,031.5,8.4,0002.6,0016.32,0005.58,0004.12
2023-06-24 11:56:00,SystemResetWarning,0829.6,5.00,000.00,030.1,028.5,000.0,038.8,031.5,8.3,0003.7,0016.28,0005.52,0004.13
2023-06-24 11:57:00,SystemResetWarning,0829.5,5.00,000.00,030.1,028.5,000.0,038.8,031.5,8.3,0004.2,0016.43,0005.54,0004.13
2023-06-24 11:58:00,SystemResetWarning,0829.6,4.99,000.00,030.1,028.5,000.0,038.8,031.5,8.4,0004.1,0016.32,0005.53,0004.14
2023-06-24 11:59:00,SystemResetWarning,0829.5,4.99,000.00,030.1,028.5,000.0,038.8,031.5,8.5,0003.8,0016.33,0005.48,0004.13
